When you browse on this site, cookies collect data to enhance your experience and personalize the content and advertising you see.
Visit our Privacy Policy to learn more. By continuing to use the site, you agree to this use of cookies and data.
  • In Latvia
  • List of Countries
  • For 7 days
  • Water Temperature
  • Weather Map
  • Weather Widgets
  • user-avatar
    Login

    Hourly Weather Maza

    Today, 16 February, Sunday

    Time Temperature Precipitation Wind Pressure Humidity
    00:00 -10°C° 0 mm 0 mps 762 mmHg 97%
    01:00 -10°C° 0 mm 0 mps 762 mmHg 97%
    02:00 -10°C° 0 mm 1 mps 763 mmHg 96%
    03:00 -9°C° 0 mm 1 mps 763 mmHg 99%
    04:00 -9°C° 0 mm 1 mps 763 mmHg 98%
    05:00 -8°C° 0 mm 0 mps 764 mmHg 97%
    06:00 -8°C° 0 mm 0 mps 764 mmHg 96%
    07:00 -8°C° 0 mm 0 mps 765 mmHg 96%
    08:00 -7°C° 0 mm 0 mps 765 mmHg 95%
    09:00 -6°C° 0 mm 0 mps 765 mmHg 95%
    10:00 -4°C° 0 mm 1 mps 765 mmHg 93%
    11:00 -3°C° 0 mm 1 mps 765 mmHg 92%
    12:00 -3°C° 0 mm 1 mps 765 mmHg 91%
    13:00 -3°C° 0 mm 1 mps 765 mmHg 91%
    14:00 -4°C° 0 mm 2 mps 766 mmHg 91%
    15:00 -4°C° 0 mm 2 mps 766 mmHg 91%
    16:00 -5°C° 0 mm 2 mps 766 mmHg 92%
    17:00 -6°C° 0 mm 2 mps 766 mmHg 93%
    18:00 -7°C° 0 mm 2 mps 766 mmHg 95%
    19:00 -8°C° 0 mm 3 mps 766 mmHg 95%
    20:00 -8°C° 0 mm 3 mps 766 mmHg 95%
    21:00 -9°C° 0 mm 3 mps 766 mmHg 95%
    22:00 -9°C° 0 mm 3 mps 766 mmHg 95%
    23:00 -10°C° 0 mm 4 mps 765 mmHg 95%

    Tomorrow, 17 February, Monday

    Time Temperature Precipitation Wind Pressure Humidity
    00:00 -10°C° 0 mm 4 mps 765 mmHg 95%
    01:00 -11°C° 0 mm 4 mps 765 mmHg 95%
    02:00 -11°C° 0 mm 4 mps 765 mmHg 96%
    03:00 -12°C° 0 mm 4 mps 765 mmHg 97%
    04:00 -12°C° 0 mm 4 mps 764 mmHg 96%
    05:00 -12°C° 0 mm 5 mps 764 mmHg 96%
    06:00 -12°C° 0 mm 5 mps 764 mmHg 96%
    07:00 -11°C° 0 mm 5 mps 763 mmHg 95%
    08:00 -9°C° 0 mm 6 mps 763 mmHg 95%
    09:00 -8°C° 0 mm 6 mps 763 mmHg 94%
    10:00 -8°C° 0 mm 7 mps 762 mmHg 93%
    11:00 -7°C° 0 mm 8 mps 762 mmHg 92%
    12:00 -6°C° 0 mm 8 mps 761 mmHg 91%
    13:00 -6°C° 0 mm 9 mps 761 mmHg 89%
    14:00 -6°C° 0 mm 9 mps 760 mmHg 87%
    15:00 -5°C° 0 mm 9 mps 759 mmHg 85%
    16:00 -5°C° 0 mm 10 mps 759 mmHg 85%
    17:00 -5°C° 0 mm 10 mps 758 mmHg 84%
    18:00 -5°C° 0 mm 10 mps 758 mmHg 83%
    19:00 -5°C° 0 mm 10 mps 757 mmHg 83%
    20:00 -4°C° 0 mm 10 mps 757 mmHg 82%
    21:00 -4°C° 0 mm 10 mps 757 mmHg 81%
    22:00 -4°C° 0.1 mm 10 mps 756 mmHg 80%
    23:00 -4°C° 0.1 mm 10 mps 756 mmHg 80%

    Day after tomorrow, 18 February, Tuesday

    Time Temperature Precipitation Wind Pressure Humidity
    00:00 -4°C° 0.1 mm 10 mps 755 mmHg 79%
    01:00 -4°C° 0 mm 10 mps 755 mmHg 79%
    02:00 -4°C° 0 mm 9 mps 755 mmHg 79%
    03:00 -3°C° 0 mm 9 mps 755 mmHg 79%
    04:00 -4°C° 0 mm 9 mps 755 mmHg 80%
    05:00 -4°C° 0 mm 8 mps 755 mmHg 82%
    06:00 -4°C° 0 mm 8 mps 755 mmHg 84%
    07:00 -4°C° 0.3 mm 8 mps 755 mmHg 86%
    08:00 -4°C° 0.3 mm 8 mps 755 mmHg 89%
    09:00 -4°C° 0.3 mm 8 mps 755 mmHg 91%
    10:00 -4°C° 0.5 mm 8 mps 755 mmHg 92%
    11:00 -2°C° 0.5 mm 8 mps 755 mmHg 92%
    12:00 -2°C° 0.5 mm 8 mps 755 mmHg 92%
    13:00 -2°C° 0.1 mm 8 mps 754 mmHg 91%
    14:00 -2°C° 0.1 mm 7 mps 754 mmHg 90%
    15:00 -2°C° 0.1 mm 7 mps 754 mmHg 89%
    16:00 -2°C° 0.3 mm 7 mps 754 mmHg 90%
    17:00 -2°C° 0.3 mm 7 mps 754 mmHg 90%
    18:00 -2°C° 0.3 mm 7 mps 753 mmHg 90%
    19:00 -2°C° 0 mm 7 mps 753 mmHg 90%
    20:00 -2°C° 0 mm 7 mps 753 mmHg 89%
    21:00 -2°C° 0 mm 7 mps 753 mmHg 89%
    22:00 -2°C° 0 mm 7 mps 753 mmHg 89%
    23:00 -3°C° 0 mm 7 mps 752 mmHg 90%

    19 February, Wednesday

    Time Temperature Precipitation Wind Pressure Humidity
    00:00 -4°C° 0 mm 8 mps 752 mmHg 91%
    01:00 -3°C° 0 mm 7 mps 751 mmHg 91%
    02:00 -3°C° 0 mm 7 mps 751 mmHg 90%
    03:00 -3°C° 0 mm 7 mps 751 mmHg 90%
    04:00 -3°C° 0.1 mm 7 mps 750 mmHg 91%
    05:00 -3°C° 0.1 mm 6 mps 750 mmHg 92%
    06:00 -3°C° 0.1 mm 6 mps 749 mmHg 92%
    07:00 -3°C° 0 mm 6 mps 750 mmHg 92%
    08:00 -3°C° 0 mm 6 mps 750 mmHg 92%
    09:00 -3°C° 0 mm 6 mps 750 mmHg 92%
    10:00 -1°C° 0 mm 5 mps 750 mmHg 94%
    11:00 -1°C° 0 mm 5 mps 750 mmHg 97%
    12:00 -1°C° 0 mm 4 mps 750 mmHg 99%
    13:00 -1°C° 0 mm 4 mps 751 mmHg 99%
    14:00 -1°C° 0 mm 4 mps 751 mmHg 99%
    15:00 -1°C° 0 mm 4 mps 751 mmHg 99%
    16:00 0°C° 0 mm 3 mps 751 mmHg 98%
    17:00 0°C° 0 mm 3 mps 751 mmHg 97%
    18:00 +1°C° 0 mm 2 mps 751 mmHg 96%
    19:00 +1°C° 0 mm 2 mps 752 mmHg 96%
    20:00 +1°C° 0 mm 2 mps 752 mmHg 95%
    21:00 -1°C° 0 mm 2 mps 753 mmHg 95%
    22:00 -1°C° 0 mm 2 mps 753 mmHg 94%
    23:00 -1°C° 0 mm 2 mps 753 mmHg 94%

    20 February, Thursday

    Time Temperature Precipitation Wind Pressure Humidity
    00:00 +1°C° 0 mm 2 mps 753 mmHg 93%
    01:00 -1°C° 0 mm 2 mps 753 mmHg 93%
    02:00 -1°C° 0 mm 2 mps 753 mmHg 92%
    03:00 -1°C° 0 mm 2 mps 753 mmHg 92%
    04:00 -1°C° 0 mm 2 mps 753 mmHg 91%
    05:00 -1°C° 0 mm 2 mps 754 mmHg 90%
    06:00 -1°C° 0 mm 2 mps 754 mmHg 90%
    07:00 -1°C° 0 mm 2 mps 754 mmHg 90%
    08:00 +1°C° 0 mm 1 mps 754 mmHg 91%
    09:00 +2°C° 0 mm 1 mps 755 mmHg 92%
    10:00 +2°C° 0 mm 1 mps 755 mmHg 94%
    11:00 +2°C° 0 mm 1 mps 755 mmHg 96%
    12:00 +2°C° 0 mm 1 mps 755 mmHg 99%
    13:00 +2°C° 0 mm 1 mps 755 mmHg 98%
    14:00 +2°C° 0 mm 1 mps 755 mmHg 97%
    15:00 +2°C° 0 mm 1 mps 755 mmHg 97%
    16:00 +1°C° 0 mm 1 mps 755 mmHg 94%
    17:00 0°C° 0 mm 1 mps 755 mmHg 92%
    18:00 -2°C° 0 mm 0 mps 756 mmHg 90%
    19:00 -3°C° 0 mm 0 mps 756 mmHg 90%
    20:00 -3°C° 0 mm 0 mps 756 mmHg 90%
    21:00 -4°C° 0 mm 0 mps 756 mmHg 89%
    22:00 -4°C° 0 mm 0 mps 756 mmHg 89%
    23:00 -4°C° 0 mm 0 mps 756 mmHg 89%

    21 February, Friday

    Time Temperature Precipitation Wind Pressure Humidity
    00:00 -4°C° 0 mm 0 mps 756 mmHg 89%
    01:00 -3°C° 0 mm 1 mps 756 mmHg 90%
    02:00 -3°C° 0 mm 1 mps 756 mmHg 90%
    03:00 -3°C° 0 mm 1 mps 756 mmHg 90%
    04:00 -3°C° 0 mm 1 mps 757 mmHg 90%
    05:00 -4°C° 0 mm 1 mps 757 mmHg 91%
    06:00 -4°C° 0 mm 1 mps 757 mmHg 91%
    07:00 -4°C° 0 mm 1 mps 757 mmHg 92%
    08:00 -3°C° 0 mm 1 mps 757 mmHg 92%
    09:00 -2°C° 0 mm 1 mps 757 mmHg 93%
    16:00 -3°C° 0 mm 2 mps 756 mmHg 93%
    17:00 -4°C° 0 mm 2 mps 757 mmHg 93%
    18:00 -5°C° 0 mm 2 mps 757 mmHg 93%
    19:00 -5°C° 0 mm 2 mps 757 mmHg 93%
    20:00 -5°C° 0 mm 2 mps 757 mmHg 94%
    21:00 -5°C° 0 mm 2 mps 757 mmHg 94%
    22:00 -5°C° 0 mm 2 mps 757 mmHg 94%
    23:00 -5°C° 0 mm 2 mps 756 mmHg 94%
    Show more